Location: Windsor
(43.2292°N, 89.3015°W)
Time: 10:47:38
(UTC+00:00)

Tiros 1 - Pass Details

Date: 31 May 2022
Orbit: 629 x 663 km, 48.4° (Epoch: 04 July)

Event Time Altitude Azimuth Distance (km) Brightness Sun altitude
Rises 09:30:20 0° 294° (WNW) 2,927 10.3 -8.2°
Reaches altitude 10° 09:32:39 10° 296° (WNW) 2,021 9.5 -7.9°
Maximum altitude 09:37:19 79° 24° (NNE) 655 7.3 -7.2°
Drops below altitude 10° 09:42:01 10° 111° (ESE) 2,035 10.2 -6.6°
Sets 09:44:21 0° 112° (ESE) 2,949 11.0 -6.2°
